Regional Weather Roundup
Issued by NWS

Home | Current Version | Previous Version | Text Only | Print | Product List | Glossary Off
Versions: 1 2 3 4 5 6 7 8 9 10 11 12 13 14 15 16 17 18 19 20 21 22 23 24 25 26 27 28 29 30 31 32 33 34 35 36 37 38 39 40 41 42 43 44 45 46 47 48 49 50

000
ASUS43 KBIS 161502
RWRND

NORTH DAKOTA REGIONAL WEATHER ROUNDUP
NATIONAL WEATHER SERVICE BISMARCK ND
900 AM CST TUE JAN 16 2018

NOTE: "FAIR" INDICATES FEW OR NO CLOUDS BELOW 12,000 FEET WITH NO
SIGNIFICANT WEATHER AND/OR OBSTRUCTIONS TO VISIBILITY.


NDZ001>003-009>011-017-161600-
NORTHWEST NORTH DAKOTA

CITY           SKY/WX    TMP DP  RH WIND       PRES   REMARKS
WILLISTON      PTCLDY   -10 -15  78 S3        30.48F
MINOT          CLOUDY    -2 -13  59 SW16      30.50F WCI -23
MINOT AFB      CLOUDY    -5 -14  66 SW7       30.50F WCI -19
$$

NDZ018>021-031>035-040>046-161600-
SOUTHWEST NORTH DAKOTA

CITY           SKY/WX    TMP DP  RH WIND       PRES   REMARKS
BISMARCK       PTCLDY   -20 -26  74 E6        30.67S WCI -35
DICKINSON      CLEAR     -7 -14  71 S13       30.45S WCI -27
GARRISON         N/A    -13 -18  78 S7        30.56F WCI -29
HETTINGER ARPT PTCLDY   -13 -19  75 S3        30.50F
$$

NDZ004>008-012>016-024-026-027-054-161600-
NORTHEAST NORTH DAKOTA

CITY           SKY/WX    TMP DP  RH WIND       PRES   REMARKS
GRAND FORKS    FAIR     -14 -20  74 S10       30.71F WCI -34
GRND FRKS AFB  FAIR     -13 -21  67 S9        30.70F WCI -32
DEVILS LAKE    FAIR     -12 -18  74 SW6       30.62F WCI -26
$$

NDZ022-023-025-028>030-036>039-047>053-161600-
SOUTHEAST NORTH DAKOTA

CITY           SKY/WX    TMP DP  RH WIND       PRES   REMARKS
FARGO          FAIR     -14 -20  74 SW5       30.76F WCI -26
JAMESTOWN      CLOUDY   -13 -19  75 W5        30.66F WCI -25
$$





USA.gov is the U.S. government's official web portal to all federal, state and local government web resources and services.